TimeMDT,TemperatureF,Dew PointF,Humidity,Sea Level PressureIn,VisibilityMPH,Wind Direction,Wind SpeedMPH,Gust SpeedMPH,PrecipitationIn,Events,Conditions,WindDirDegrees,DateUTC
12:53 AM,54.0,50.0,86,30.01,10.0,Calm,Calm,-,N/A,,Clear,0,2013-09-12 06:53:00
1:53 AM,54.0,50.0,86,30.01,10.0,ESE,3.5,-,N/A,,Mostly Cloudy,110,2013-09-12 07:53:00
2:53 AM,55.9,51.1,84,30.01,10.0,NW,4.6,-,N/A,,Overcast,310,2013-09-12 08:53:00
3:06 AM,55.4,51.8,88,30.21,10.0,West,6.9,-,N/A,Thunderstorm,Thunderstorm,260,2013-09-12 09:06:00
3:21 AM,55.4,51.8,88,30.20,10.0,ESE,4.6,-,N/A,,Overcast,110,2013-09-12 09:21:00
3:53 AM,57.0,48.9,74,29.98,10.0,Calm,Calm,-,N/A,,Scattered Clouds,0,2013-09-12 09:53:00
4:53 AM,55.9,50.0,80,30.00,10.0,ENE,3.5,-,N/A,,Clear,60,2013-09-12 10:53:00
5:53 AM,54.0,50.0,86,30.00,10.0,Calm,Calm,-,N/A,,Overcast,0,2013-09-12 11:53:00
6:53 AM,54.0,50.0,86,30.03,10.0,Calm,Calm,-,N/A,,Mostly Cloudy,0,2013-09-12 12:53:00
7:53 AM,55.9,50.0,80,30.06,10.0,East,3.5,-,N/A,,Partly Cloudy,80,2013-09-12 13:53:00
8:53 AM,59.0,52.0,78,30.06,10.0,Calm,Calm,-,N/A,,Scattered Clouds,0,2013-09-12 14:53:00
9:13 AM,59.0,51.8,77,30.27,10.0,Calm,Calm,-,0.00,Rain-Thunderstorm,Light Rain,0,2013-09-12 15:13:00
9:22 AM,59.0,53.6,82,30.26,6.0,NNE,3.5,-,0.01,Rain-Thunderstorm,Thunderstorms and Rain,30,2013-09-12 15:22:00
9:26 AM,57.2,53.6,88,30.26,2.5,NNE,5.8,-,0.05,Rain-Thunderstorm,Heavy Thunderstorms and Rain,20,2013-09-12 15:26:00
9:40 AM,57.2,53.6,88,30.26,5.0,Variable,3.5,-,0.06,Rain-Thunderstorm,Rain,0,2013-09-12 15:40:00
9:53 AM,60.1,52.0,75,30.09,10.0,NW,5.8,-,0.06,Thunderstorm,Overcast,310,2013-09-12 15:53:00
10:14 AM,59.0,51.8,77,30.26,10.0,East,12.7,-,0.01,,Overcast,90,2013-09-12 16:14:00
10:24 AM,59.0,53.6,82,30.26,10.0,East,10.4,-,0.01,,Overcast,80,2013-09-12 16:24:00
10:53 AM,63.0,54.0,72,30.08,10.0,NNE,8.1,-,0.01,,Overcast,30,2013-09-12 16:53:00
11:53 AM,66.9,55.9,68,30.06,10.0,NE,11.5,16.1,N/A,,Mostly Cloudy,50,2013-09-12 17:53:00
12:53 PM,73.0,57.0,57,30.02,10.0,ENE,8.1,-,N/A,,Partly Cloudy,60,2013-09-12 18:53:00
1:53 PM,71.1,55.0,57,29.99,10.0,West,5.8,-,N/A,,Overcast,260,2013-09-12 19:53:00
2:10 PM,71.6,55.4,57,30.17,10.0,WSW,5.8,-,N/A,Thunderstorm,Overcast,250,2013-09-12 20:10:00
2:53 PM,66.0,57.9,75,30.01,10.0,North,8.1,-,0.07,Thunderstorm,Thunderstorm,350,2013-09-12 20:53:00
3:10 PM,69.8,59.0,68,30.16,10.0,NNW,4.6,-,N/A,,Scattered Clouds,340,2013-09-12 21:10:00
3:53 PM,73.9,53.1,48,29.94,10.0,Calm,Calm,-,N/A,,Partly Cloudy,0,2013-09-12 21:53:00
4:53 PM,73.9,54.0,50,29.91,10.0,NNW,8.1,-,N/A,,Mostly Cloudy,330,2013-09-12 22:53:00
5:53 PM,73.0,55.0,53,29.93,10.0,North,3.5,-,N/A,,Overcast,360,2013-09-12 23:53:00
6:53 PM,70.0,55.9,61,29.94,10.0,South,10.4,17.3,N/A,Thunderstorm,Thunderstorm,170,2013-09-13 00:53:00
6:59 PM,62.6,57.2,82,30.15,1.2,SSE,26.5,32.2,0.14,Rain-Thunderstorm,Heavy Thunderstorms and Rain,160,2013-09-13 00:59:00
7:07 PM,60.8,55.4,82,30.15,0.5,SSW,15.0,32.2,0.40,Rain-Thunderstorm,Heavy Thunderstorms and Rain,210,2013-09-13 01:07:00
7:17 PM,59.0,53.6,82,30.14,1.2,SW,4.6,-,0.50,Rain,Heavy Rain,230,2013-09-13 01:17:00
7:22 PM,59.0,55.4,88,30.15,1.2,SSE,6.9,-,0.54,Rain-Thunderstorm,Heavy Thunderstorms and Rain,160,2013-09-13 01:22:00
7:26 PM,57.2,55.4,94,30.14,2.0,South,5.8,-,0.54,Rain-Thunderstorm,Light Thunderstorms and Rain,180,2013-09-13 01:26:00
7:28 PM,59.0,55.4,88,30.14,3.0,South,4.6,-,0.54,Rain-Thunderstorm,Light Thunderstorms and Rain,170,2013-09-13 01:28:00
7:38 PM,59.0,55.4,88,30.14,10.0,NNE,5.8,-,0.54,Thunderstorm,Overcast,30,2013-09-13 01:38:00
7:53 PM,59.0,55.9,90,29.99,10.0,North,3.5,-,0.54,,Mostly Cloudy,360,2013-09-13 01:53:00
8:53 PM,61.0,57.0,87,29.98,10.0,NW,5.8,-,0.00,Rain,Light Rain,310,2013-09-13 02:53:00
9:53 PM,59.0,55.0,87,29.98,10.0,Calm,Calm,-,0.00,,Clear,0,2013-09-13 03:53:00
10:53 PM,59.0,55.9,90,29.97,10.0,Calm,Calm,-,N/A,,Mostly Cloudy,0,2013-09-13 04:53:00
11:53 PM,57.9,55.0,90,29.97,10.0,Calm,Calm,-,N/A,,Clear,0,2013-09-13 05:53:00